Location: Bannatyne
(13.0833°N, 59.5333°W)
Time: 11:22:14
(UTC+00:00)

Explorer 7 - Pass Details

Date: 26 January 2020
Orbit: 485 x 679 km, 50.3° (Epoch: 25 February)

Event Time Altitude Azimuth Distance (km) Brightness Sun altitude
Rises 10:13:28 0° 324° (NW) 2,683 9.8 -3.5°
Reaches altitude 10° 10:15:37 10° 325° (NW) 1,822 9.0 -3.0°
Maximum altitude 10:19:46 77° 51° (NE) 593 7.1 -2.1°
Drops below altitude 10° 10:24:14 10° 138° (SE) 1,946 10.8 -1.0°
Sets 10:26:36 0° 139° (SE) 2,884 11.7 -0.5°
